FW3914 Weather Reports


Display with metric or nautical units.
time (UTC)temp
F
wind
direction
speed
MPH
gust
MPH
rain 1hr
in
rain 24hr
in
rain mn
in
humidity
%
barometer
mb
20260505180032 85 224 5.0 12.0 0.00 0.00 0.00 67 1005.1
20260505175532 85 268 3.0 10.0 0.00 0.00 0.00 68 1005.1
20260505175029 84 231 5.0 13.0 0.00 0.00 0.00 68 1004.9
20260505174526 84 200 12.0 13.0 0.00 0.00 0.00 68 1004.8
20260505174022 84 201 5.0 11.0 0.00 0.00 0.00 69 1005.0
20260505173519 84 216 4.0 11.0 0.00 0.00 0.00 68 1005.0
20260505173016 84 213 5.0 11.0 0.00 0.00 0.00 69 1005.1
20260505172514 84 208 14.0 14.0 0.00 0.00 0.00 68 1005.2
20260505172009 83 265 6.0 13.0 0.00 0.00 0.00 69 1005.4
20260505171505 83 207 5.0 13.0 0.00 0.00 0.00 70 1005.2
20260505171002 83 237 5.0 9.0 0.00 0.00 0.00 70 1005.0
20260505170458 82 207 3.0 11.0 0.00 0.00 0.00 70 1005.2
20260505165954 83 243 5.0 13.0 0.00 0.00 0.00 69 1005.3
20260505165450 82 209 5.0 11.0 0.00 0.00 0.00 71 1005.1
20260505164945 82 222 5.0 13.0 0.00 0.00 0.00 71 1005.2
20260505164442 81 222 7.0 13.0 0.00 0.00 0.00 71 1005.4
20260505163940 81 185 9.0 17.0 0.00 0.00 0.00 71 1005.2
20260505163439 81 247 3.0 13.0 0.00 0.00 0.00 71 1005.1
20260505162938 81 181 6.0 15.0 0.00 0.00 0.00 71 1005.0
20260505162433 81 192 4.0 18.0 0.00 0.00 0.00 72 1005.0
20260505161930 81 182 6.0 20.0 0.00 0.00 0.00 71 1004.8
20260505161426 81 226 5.0 14.0 0.00 0.00 0.00 72 1005.1
20260505160924 81 181 4.0 10.0 0.00 0.00 0.00 72 1004.7
20260505160422 81 242 4.0 12.0 0.00 0.00 0.00 72 1004.7
20260505152858 80 197 3.0 11.0 0.00 0.00 0.00 76 1004.7
20260505152350 79 177 5.0 13.0 0.00 0.00 0.00 76 1004.8
20260505151849 78 186 5.0 12.0 0.00 0.00 0.00 78 1005.1
20260505151346 78 228 4.0 22.0 0.00 0.00 0.00 79 1005.0
20260505150843 77 212 2.0 12.0 0.00 0.00 0.00 80 1005.0
20260505150340 77 160 7.0 11.0 0.00 0.00 0.00 79 1004.9
20260505140304 73 256 3.0 8.0 0.00 0.00 0.00 85 1005.2
20260505130147 72 259 2.0 9.0 0.00 0.00 0.00 87 1004.6
20260505124637 71 238 2.0 6.0 0.00 0.00 0.00 88 1004.7
20260505124133 71 174 4.0 10.0 0.00 0.00 0.00 88 1004.6
20260505123629 71 198 3.0 8.0 0.00 0.00 0.00 88 1004.1
20260505123126 71 186 2.0 10.0 0.00 0.00 0.00 88 1004.1
20260505122623 71 254 2.0 9.0 0.00 0.00 0.00 88 1003.9
20260505122120 71 183 3.0 9.0 0.00 0.00 0.00 88 1004.5
20260505121617 71 201 3.0 8.0 0.00 0.00 0.00 88 1004.4
20260505121114 71 247 6.0 13.0 0.00 0.00 0.00 88 1004.3
20260505120610 71 172 4.0 10.0 0.00 0.00 0.00 88 1004.1
20260505120106 71 225 7.0 11.0 0.00 0.00 0.00 88 1004.2
20260505115600 71 75 2.0 8.0 0.00 0.00 0.00 88 1004.1
20260505115058 71 201 4.0 12.0 0.00 0.00 0.00 88 1004.2
20260505114555 71 253 3.0 8.0 0.00 0.00 0.00 88 1004.2
20260505114051 71 220 3.0 9.0 0.00 0.00 0.00 88 1004.3
20260505113547 71 207 5.0 10.0 0.00 0.00 0.00 87 1004.0
20260505113044 71 199 4.0 9.0 0.00 0.00 0.00 88 1003.7
20260505112540 71 209 5.0 7.0 0.00 0.00 0.00 88 1003.8
20260505112038 71 198 4.0 14.0 0.00 0.00 0.00 88 1004.0
20260505111532 71 215 9.0 11.0 0.00 0.00 0.00 88 1003.8
20260505111029 71 231 4.0 9.0 0.00 0.00 0.00 88 1003.7
20260505110525 71 175 2.0 9.0 0.00 0.00 0.00 88 1003.5
20260505101958 71 218 6.0 10.0 0.00 0.00 0.00 87 1003.9
20260505101455 71 230 2.0 11.0 0.00 0.00 0.00 87 1003.9
20260505100952 71 150 4.0 11.0 0.00 0.00 0.00 87 1004.0
20260505100449 71 243 4.0 10.0 0.00 0.00 0.00 87 1004.1
20260505095945 71 208 3.0 13.0 0.00 0.00 0.00 87 1003.9
20260505095442 71 223 2.0 12.0 0.00 0.00 0.00 87 1003.9
20260505094938 71 264 4.0 9.0 0.00 0.00 0.00 87 1004.1
20260505094435 71 222 4.0 10.0 0.00 0.00 0.00 87 1004.1
20260505093931 71 227 3.0 17.0 0.00 0.00 0.00 87 1004.4
20260505093428 71 161 5.0 16.0 0.00 0.00 0.00 87 1004.2
20260505092925 71 140 3.0 11.0 0.00 0.00 0.00 87 1004.3
20260505092423 71 95 2.0 11.0 0.00 0.00 0.00 87 1004.5
20260505091920 71 253 2.0 13.0 0.00 0.00 0.00 87 1004.3
20260505091418 71 271 2.0 11.0 0.00 0.00 0.00 87 1004.5
20260505090916 71 193 5.0 14.0 0.00 0.00 0.00 87 1004.2
20260505090414 71 227 5.0 11.0 0.00 0.00 0.00 87 1004.3
20260505085911 71 187 6.0 15.0 0.00 0.00 0.00 87 1004.4
20260505085409 71 150 1.0 14.0 0.00 0.00 0.00 87 1004.5
20260505084906 71 227 2.0 11.0 0.00 0.00 0.00 87 1004.4
20260505084405 71 191 7.0 11.0 0.00 0.00 0.00 87 1004.4
20260505083902 71 203 6.0 11.0 0.00 0.00 0.00 87 1004.3
20260505083359 71 205 3.0 12.0 0.00 0.00 0.00 87 1004.2
20260505082855 71 190 5.0 13.0 0.00 0.00 0.00 87 1004.2
20260505082351 71 255 4.0 9.0 0.00 0.00 0.00 87 1004.5
20260505081848 71 153 2.0 10.0 0.00 0.00 0.00 87 1004.4
20260505081345 71 233 3.0 11.0 0.00 0.00 0.00 87 1004.4
20260505080842 71 232 4.0 12.0 0.00 0.00 0.00 87 1004.4
20260505080338 71 173 7.0 13.0 0.00 0.00 0.00 87 1004.4
20260505075833 71 157 3.0 11.0 0.00 0.00 0.00 87 1004.6
20260505075330 71 221 5.0 8.0 0.00 0.00 0.00 86 1004.7
20260505074828 71 181 2.0 13.0 0.00 0.00 0.00 86 1004.7
20260505074325 71 174 2.0 11.0 0.00 0.00 0.00 86 1004.8
20260505073822 71 192 6.0 11.0 0.00 0.00 0.00 86 1005.1
20260505073320 71 275 2.0 11.0 0.00 0.00 0.00 85 1005.1
20260505072817 71 218 3.0 10.0 0.00 0.00 0.00 85 1005.3
20260505072313 71 256 4.0 13.0 0.00 0.00 0.00 85 1005.3
20260505071809 71 183 3.0 8.0 0.00 0.00 0.00 85 1005.4
20260505071306 71 195 0.0 8.0 0.00 0.00 0.00 84 1005.3
20260505070804 72 209 4.0 9.0 0.00 0.00 0.00 84 1005.3
20260505070300 72 192 7.0 11.0 0.00 0.00 0.00 84 1005.0
20260505065755 72 262 4.0 8.0 0.00 0.00 0.00 84 1005.5
20260505065252 72 186 3.0 10.0 0.00 0.00 0.00 84 1005.4
20260505064749 72 170 4.0 18.0 0.00 0.00 0.00 83 1005.4
20260505064246 72 217 4.0 10.0 0.00 0.00 0.00 83 1005.6
20260505063744 72 170 4.0 11.0 0.00 0.00 0.00 83 1005.6
20260505063240 72 190 6.0 9.0 0.00 0.00 0.00 83 1005.6
20260505062736 72 207 5.0 13.0 0.00 0.00 0.00 82 1005.5
20260505062234 72 217 3.0 12.0 0.00 0.00 0.00 82 1005.3
20260505061731 72 198 4.0 13.0 0.00 0.00 0.00 82 1005.3
20260505061229 72 254 3.0 9.0 0.00 0.00 0.00 82 1005.7
20260505060726 72 114 6.0 12.0 0.00 0.00 0.00 82 1005.6
20260505060223 72 133 5.0 9.0 0.00 0.00 0.00 81 1005.6
20260505055718 72 262 4.0 14.0 0.00 0.00 0.00 81 1005.8
20260505055215 72 170 12.0 12.0 0.00 0.00 0.00 81 1005.6
20260505054712 72 204 5.0 13.0 0.00 0.00 0.00 81 1005.7
20260505054210 72 235 3.0 8.0 0.00 0.00 0.00 81 1005.9
20260505053708 72 200 3.0 10.0 0.00 0.00 0.00 81 1005.8
20260505053204 72 234 5.0 11.0 0.00 0.00 0.00 80 1005.8
20260505052701 72 168 2.0 10.0 0.00 0.00 0.00 80 1005.9
20260505052158 72 202 2.0 14.0 0.00 0.00 0.00 80 1005.6
20260505051655 72 159 5.0 9.0 0.00 0.00 0.00 80 1005.9
20260505051154 72 243 2.0 15.0 0.00 0.00 0.00 79 1005.9
20260505050651 72 210 6.0 10.0 0.00 0.00 0.00 79 1006.1
20260505050149 72 172 5.0 15.0 0.00 0.00 0.00 79 1006.1
20260505041619 72 183 4.0 10.0 0.00 0.00 0.00 78 1006.4
20260505041116 73 255 2.0 7.0 0.00 0.00 0.00 77 1006.5
20260505040613 73 244 4.0 10.0 0.00 0.00 0.00 77 1006.3
20260505040110 73 214 2.0 9.0 0.00 0.00 0.00 77 1006.3
20260505035606 73 189 3.0 8.0 0.00 0.00 0.00 77 1006.4
20260505035103 73 235 3.0 8.0 0.00 0.00 0.00 77 1006.4
20260505034559 73 150 5.0 9.0 0.00 0.00 0.00 76 1006.1
20260505034056 73 213 3.0 8.0 0.00 0.00 0.00 75 1006.2
20260505033553 73 219 5.0 7.0 0.00 0.00 0.00 75 1006.4
20260505033052 73 253 3.0 10.0 0.00 0.00 0.00 75 1006.4
20260505032549 73 223 4.0 8.0 0.00 0.00 0.00 75 1006.5
20260505032045 73 264 2.0 9.0 0.00 0.00 0.00 75 1006.5
20260505031543 73 161 2.0 9.0 0.00 0.00 0.00 75 1006.4
20260505031039 73 185 6.0 8.0 0.00 0.00 0.00 75 1006.2
20260505030536 74 181 5.0 10.0 0.00 0.00 0.00 74 1006.3
20260505030032 74 212 6.0 11.0 0.00 0.00 0.00 74 1006.3
20260505025528 74 218 3.0 7.0 0.00 0.00 0.00 74 1006.4
20260505025027 74 213 5.0 8.0 0.00 0.00 0.00 74 1006.4
20260505024524 74 143 2.0 10.0 0.00 0.00 0.00 73 1006.3
20260505024021 74 195 2.0 6.0 0.00 0.00 0.00 73 1006.5
20260505023518 74 218 3.0 9.0 0.00 0.00 0.00 73 1006.4
20260505023015 74 128 8.0 8.0 0.00 0.00 0.00 73 1006.1
20260505022513 74 197 1.0 7.0 0.00 0.00 0.00 72 1006.2
20260505022010 75 254 3.0 8.0 0.00 0.00 0.00 72 1006.3
20260505021506 75 202 4.0 9.0 0.00 0.00 0.00 71 1006.1
20260505021003 75 214 4.0 10.0 0.00 0.00 0.00 71 1006.1
20260505020457 75 192 4.0 8.0 0.00 0.00 0.00 71 1006.2
20260505015954 75 140 3.0 11.0 0.00 0.00 0.00 71 1006.0
20260505015452 75 148 4.0 11.0 0.00 0.00 0.00 70 1006.4
20260505014949 75 248 3.0 13.0 0.00 0.00 0.00 70 1006.1
20260505014446 75 224 4.0 12.0 0.00 0.00 0.00 70 1006.3
20260505013943 75 210 2.0 6.0 0.00 0.00 0.00 70 1006.5
20260505013440 76 227 5.0 8.0 0.00 0.00 0.00 69 1006.2
20260505012937 76 212 3.0 6.0 0.00 0.00 0.00 69 1006.4
20260505012435 76 233 3.0 10.0 0.00 0.00 0.00 69 1006.4
20260505011931 76 263 2.0 9.0 0.00 0.00 0.00 68 1006.2
20260505011428 76 223 10.0 14.0 0.00 0.00 0.00 68 1006.3
20260505010925 76 202 2.0 7.0 0.00 0.00 0.00 68 1006.1
20260505010420 76 226 3.0 7.0 0.00 0.00 0.00 67 1006.1
20260505005916 77 189 3.0 13.0 0.00 0.00 0.00 67 1006.2
20260505005414 77 253 3.0 16.0 0.00 0.00 0.00 67 1005.8
20260505004911 77 166 6.0 12.0 0.00 0.00 0.00 66 1006.3
20260505004407 77 178 2.0 9.0 0.00 0.00 0.00 66 1006.1
20260505003904 77 193 4.0 15.0 0.00 0.00 0.00 66 1006.3
20260505003401 77 182 4.0 12.0 0.00 0.00 0.00 65 1006.4
20260505002858 78 234 3.0 9.0 0.00 0.00 0.00 65 1006.5
20260505002354 78 210 3.0 9.0 0.00 0.00 0.00 64 1006.0
20260505001853 78 213 3.0 9.0 0.00 0.00 0.00 64 1006.3
20260505001349 78 205 4.0 16.0 0.00 0.00 0.00 63 1006.7
20260505000847 79 202 6.0 16.0 0.00 0.00 0.00 63 1006.4
20260505000344 79 259 4.0 13.0 0.00 0.00 0.00 63 1006.2
20260504235841 79 200 5.0 13.0 0.00 0.00 0.00 62 1006.2
20260504235338 79 204 5.0 20.0 0.00 0.00 0.00 62 1006.4
20260504234834 79 236 7.0 14.0 0.00 0.00 0.00 62 1006.4
20260504234332 79 201 6.0 15.0 0.00 0.00 0.00 62 1006.7
20260504233829 79 239 5.0 19.0 0.00 0.00 0.00 62 1006.3
20260504233324 79 188 3.0 14.0 0.00 0.00 0.00 62 1006.5
20260504232821 80 238 5.0 13.0 0.00 0.00 0.00 62 1006.7
20260504232319 80 220 5.0 13.0 0.00 0.00 0.00 61 1006.4
20260504231815 81 180 6.0 11.0 0.00 0.00 0.00 60 1006.9
20260504231312 81 190 6.0 14.0 0.00 0.00 0.00 59 1006.9
20260504230808 82 242 7.0 19.0 0.00 0.00 0.00 58 1006.8
20260504230306 82 201 6.0 18.0 0.00 0.00 0.00 57 1006.9
20260504225805 82 202 6.0 18.0 0.00 0.00 0.00 57 1006.9
20260504225301 82 233 3.0 15.0 0.00 0.00 0.00 58 1006.9
20260504224758 82 262 4.0 14.0 0.00 0.00 0.00 57 1006.9
20260504224255 83 213 4.0 12.0 0.00 0.00 0.00 56 1007.1
20260504223751 83 213 3.0 15.0 0.00 0.00 0.00 57 1007.0
20260504223247 82 198 5.0 13.0 0.00 0.00 0.00 56 1007.0
20260504222744 82 214 5.0 13.0 0.00 0.00 0.00 57 1006.9
20260504222241 82 252 5.0 15.0 0.00 0.00 0.00 57 1006.8
20260504221739 82 260 5.0 17.0 0.00 0.00 0.00 57 1006.9
20260504221235 82 231 4.0 23.0 0.00 0.00 0.00 56 1006.8
20260504220732 81 165 2.0 12.0 0.00 0.00 0.00 58 1007.2
20260504220229 81 206 4.0 16.0 0.00 0.00 0.00 58 1007.1
20260504215726 82 263 5.0 24.0 0.00 0.00 0.00 57 1007.2
20260504215223 82 262 7.0 13.0 0.00 0.00 0.00 57 1007.4
20260504214719 82 245 7.0 15.0 0.00 0.00 0.00 56 1007.4
20260504214215 82 222 5.0 10.0 0.00 0.00 0.00 56 1007.4
20260504213712 83 301 15.0 15.0 0.00 0.00 0.00 56 1007.5
20260504213209 83 234 5.0 12.0 0.00 0.00 0.00 56 1007.2
20260504212706 83 157 3.0 16.0 0.00 0.00 0.00 55 1007.6
20260504212203 83 214 3.0 16.0 0.00 0.00 0.00 55 1007.7
20260504211700 84 213 6.0 29.0 0.00 0.00 0.00 54 1007.8
20260504211155 83 224 5.0 12.0 0.00 0.00 0.00 54 1008.0
20260504210654 82 280 4.0 19.0 0.00 0.00 0.00 55 1007.7
20260504210150 83 204 5.0 15.0 0.00 0.00 0.00 53 1007.8
20260504205647 84 225 2.0 12.0 0.00 0.00 0.00 53 1008.1
20260504205144 84 203 4.0 6.0 0.00 0.00 0.00 53 1008.0
20260504204643 83 187 4.0 13.0 0.00 0.00 0.00 53 1008.2
20260504204142 83 208 3.0 12.0 0.00 0.00 0.00 52 1008.4
20260504203640 83 224 4.0 15.0 0.00 0.00 0.00 53 1008.5
20260504203137 84 277 3.0 9.0 0.00 0.00 0.00 52 1008.8
20260504202637 83 221 5.0 13.0 0.00 0.00 0.00 52 1008.9
20260504202134 83 209 12.0 12.0 0.00 0.00 0.00 52 1009.0
20260504201631 83 258 3.0 14.0 0.00 0.00 0.00 53 1009.1
20260504201129 83 228 3.0 13.0 0.00 0.00 0.00 51 1009.5
20260504200626 83 242 5.0 13.0 0.00 0.00 0.00 52 1009.2
20260504200122 83 256 3.0 14.0 0.00 0.00 0.00 52 1009.4
20260504195618 83 235 4.0 11.0 0.00 0.00 0.00 54 1009.4
20260504195115 82 231 5.0 22.0 0.00 0.00 0.00 52 1009.5
20260504194612 82 274 3.0 13.0 0.00 0.00 0.00 52 1009.5
20260504194107 82 173 4.0 14.0 0.00 0.00 0.00 51 1009.8
20260504193604 83 231 4.0 12.0 0.00 0.00 0.00 51 1009.6
20260504193102 82 252 3.0 15.0 0.00 0.00 0.00 52 1009.9
20260504192600 81 84 5.0 15.0 0.00 0.00 0.00 51 1009.7
20260504192058 81 67 4.0 9.0 0.00 0.00 0.00 52 1009.8
20260504191556 81 242 6.0 14.0 0.00 0.00 0.00 51 1010.2
20260504191052 81 216 4.0 16.0 0.00 0.00 0.00 51 1010.2
20260504190548 82 250 4.0 10.0 0.00 0.00 0.00 51 1010.2
20260504190044 81 214 3.0 12.0 0.00 0.00 0.00 51 1010.2
20260504185542 81 229 1.0 9.0 0.00 0.00 0.00 51 1010.4
20260504185038 80 144 5.0 16.0 0.00 0.00 0.00 50 1010.3
20260504184533 80 216 4.0 12.0 0.00 0.00 0.00 50 1010.1
20260504184029 81 247 3.0 17.0 0.00 0.00 0.00 50 1010.4
20260504183526 80 209 4.0 13.0 0.00 0.00 0.00 50 1010.5
20260504183025 80 223 4.0 18.0 0.00 0.00 0.00 48 1010.7
20260504182521 80 223 5.0 13.0 0.00 0.00 0.00 49 1010.6
20260504182018 79 189 5.0 15.0 0.00 0.00 0.00 50 1010.8
20260504181515 80 206 7.0 14.0 0.00 0.00 0.00 48 1010.8
20260504181014 80 206 4.0 13.0 0.00 0.00 0.00 49 1010.9
20260504180512 78 226 7.0 15.0 0.00 0.00 0.00 49 1010.8